Time,TemperatureF,DewpointF,PressureIn,WindDirection,WindDirectionDegrees,WindSpeedMPH,WindSpeedGustMPH,Humidity,HourlyPrecipIn,Conditions,Clouds,dailyrainin,SolarRadiationWatts/m^2,SoftwareType,DateUTC
2013-08-17 00:01:00,57.2,54.3,30.20,SE,130,0.0,0.0,90,0.00,,---,0.00,0.00,VWS V14.01,2013-08-17 04:01:00,
2013-08-17 00:06:00,57.2,54.3,30.20,SE,130,0.0,0.0,90,0.00,,---,0.00,0.00,VWS V14.01,2013-08-17 04:06:00,
2013-08-17 00:11:00,57.2,54.3,30.20,SE,130,0.0,0.0,90,0.00,,---,0.00,0.00,VWS V14.01,2013-08-17 04:11:00,
2013-08-17 00:16:00,57.0,54.1,30.20,SE,130,0.0,0.0,90,0.00,,---,0.00,0.00,VWS V14.01,2013-08-17 04:16:00,
2013-08-17 00:21:00,57.0,54.1,30.21,SE,130,0.0,0.0,90,0.00,,---,0.00,0.00,VWS V14.01,2013-08-17 04:21:00,
2013-08-17 00:26:00,56.9,54.0,30.21,SE,130,0.0,0.0,90,0.00,,---,0.00,0.00,VWS V14.01,2013-08-17 04:26:00,
2013-08-17 00:31:00,56.7,54.1,30.21,SE,130,0.0,0.0,91,0.00,,---,0.00,0.00,VWS V14.01,2013-08-17 04:31:00,
2013-08-17 00:36:00,56.6,54.0,30.21,SE,130,0.0,0.0,91,0.00,,---,0.00,0.00,VWS V14.01,2013-08-17 04:36:00,
2013-08-17 00:41:00,56.5,53.9,30.21,SE,130,0.0,0.0,91,0.00,,---,0.00,0.00,VWS V14.01,2013-08-17 04:41:00,
2013-08-17 00:46:00,56.6,54.0,30.21,SE,130,0.0,0.0,91,0.00,,---,0.00,0.00,VWS V14.01,2013-08-17 04:46:00,
2013-08-17 00:51:00,56.6,54.0,30.21,SE,130,0.0,0.0,91,0.00,,---,0.00,0.00,VWS V14.01,2013-08-17 04:51:00,
2013-08-17 00:56:00,56.7,54.1,30.21,SE,130,0.0,0.0,91,0.00,,---,0.00,0.00,VWS V14.01,2013-08-17 04:56:00,
2013-08-17 01:01:00,56.7,54.1,30.21,SE,130,0.0,0.0,91,0.00,,---,0.00,0.00,VWS V14.01,2013-08-17 05:01:00,
2013-08-17 01:06:00,56.7,54.1,30.21,SE,130,0.0,0.0,91,0.00,,---,0.00,0.00,VWS V14.01,2013-08-17 05:06:00,
2013-08-17 01:11:00,56.3,53.7,30.21,SE,130,0.0,0.0,91,0.00,,---,0.00,0.00,VWS V14.01,2013-08-17 05:11:00,
2013-08-17 01:16:00,56.2,53.6,30.21,SE,130,0.0,0.0,91,0.00,,---,0.00,0.00,VWS V14.01,2013-08-17 05:16:00,
2013-08-17 01:21:00,56.2,53.9,30.22,SE,130,0.0,0.0,92,0.00,,---,0.00,0.00,VWS V14.01,2013-08-17 05:21:00,
2013-08-17 01:26:00,56.0,53.7,30.22,SE,130,0.0,0.0,92,0.00,,---,0.00,0.00,VWS V14.01,2013-08-17 05:26:00,
2013-08-17 01:31:00,56.0,53.7,30.22,SE,130,0.0,0.0,92,0.00,,---,0.00,0.00,VWS V14.01,2013-08-17 05:31:00,
2013-08-17 01:36:00,55.9,53.6,30.22,SE,130,0.0,0.0,92,0.00,,---,0.00,0.00,VWS V14.01,2013-08-17 05:36:00,
2013-08-17 01:41:00,55.7,53.7,30.22,SE,130,0.0,0.0,93,0.00,,---,0.00,0.00,VWS V14.01,2013-08-17 05:41:00,
2013-08-17 01:46:00,55.6,53.6,30.22,SE,130,0.0,0.0,93,0.00,,---,0.00,0.00,VWS V14.01,2013-08-17 05:46:00,
2013-08-17 01:51:00,55.6,53.6,30.22,SE,130,0.0,0.0,93,0.00,,---,0.00,0.00,VWS V14.01,2013-08-17 05:51:00,
2013-08-17 01:56:00,55.1,53.1,30.23,SE,130,0.0,0.0,93,0.00,,---,0.00,0.00,VWS V14.01,2013-08-17 05:56:00,
2013-08-17 02:01:00,55.1,53.4,30.23,SE,130,0.0,0.0,94,0.00,,---,0.00,0.00,VWS V14.01,2013-08-17 06:01:00,
2013-08-17 02:06:00,55.0,53.3,30.23,SE,130,0.0,0.0,94,0.00,,---,0.00,0.00,VWS V14.01,2013-08-17 06:06:00,
2013-08-17 02:11:00,55.0,53.6,30.23,SE,130,0.0,0.0,95,0.00,,---,0.00,0.00,VWS V14.01,2013-08-17 06:11:00,
2013-08-17 02:16:00,55.0,53.6,30.23,SE,130,0.0,0.0,95,0.00,,---,0.00,0.00,VWS V14.01,2013-08-17 06:16:00,
2013-08-17 02:21:00,55.0,53.9,30.23,SE,130,0.0,0.0,96,0.00,,---,0.00,0.00,VWS V14.01,2013-08-17 06:21:00,
2013-08-17 02:26:00,55.1,54.0,30.23,SE,130,0.0,0.0,96,0.00,,---,0.00,0.00,VWS V14.01,2013-08-17 06:26:00,
2013-08-17 02:31:00,55.1,54.0,30.23,SE,130,0.0,0.0,96,0.00,,---,0.00,0.00,VWS V14.01,2013-08-17 06:31:00,
2013-08-17 02:36:00,55.1,54.0,30.23,SE,130,0.0,0.0,96,0.00,,---,0.00,0.00,VWS V14.01,2013-08-17 06:36:00,
2013-08-17 02:41:00,55.1,54.0,30.23,SE,130,0.0,0.0,96,0.00,,---,0.00,0.00,VWS V14.01,2013-08-17 06:41:00,
2013-08-17 02:46:00,55.0,53.9,30.23,SE,130,0.0,0.0,96,0.00,,---,0.00,0.00,VWS V14.01,2013-08-17 06:46:00,
2013-08-17 02:51:00,54.8,53.7,30.23,SE,130,0.0,0.0,96,0.00,,---,0.00,0.00,VWS V14.01,2013-08-17 06:51:00,
2013-08-17 02:56:00,55.0,53.9,30.23,SE,130,0.0,0.0,96,0.00,,---,0.00,0.00,VWS V14.01,2013-08-17 06:56:00,
2013-08-17 03:01:00,55.0,53.9,30.23,SE,130,0.0,0.0,96,0.00,,---,0.00,0.00,VWS V14.01,2013-08-17 07:01:00,
2013-08-17 03:06:00,55.0,53.9,30.23,SE,130,0.0,0.0,96,0.00,,---,0.00,0.00,VWS V14.01,2013-08-17 07:06:00,
2013-08-17 03:11:00,55.1,54.3,30.23,SE,130,0.0,0.0,97,0.00,,---,0.00,0.00,VWS V14.01,2013-08-17 07:11:00,
2013-08-17 03:16:00,55.0,53.9,30.23,SE,130,0.0,0.0,96,0.00,,---,0.00,0.00,VWS V14.01,2013-08-17 07:16:00,
2013-08-17 03:21:00,54.8,53.7,30.23,SE,130,0.0,0.0,96,0.00,,---,0.00,0.00,VWS V14.01,2013-08-17 07:21:00,
2013-08-17 03:26:00,54.8,54.0,30.23,SE,130,0.0,0.0,97,0.00,,---,0.00,0.00,VWS V14.01,2013-08-17 07:26:00,
2013-08-17 03:31:00,54.7,53.9,30.23,SE,130,0.0,0.0,97,0.00,,---,0.00,0.00,VWS V14.01,2013-08-17 07:31:00,
2013-08-17 03:36:00,54.7,53.9,30.23,SE,130,0.0,0.0,97,0.00,,---,0.00,0.00,VWS V14.01,2013-08-17 07:36:00,
2013-08-17 03:41:00,54.7,53.9,30.23,SE,130,0.0,0.0,97,0.00,,---,0.00,0.00,VWS V14.01,2013-08-17 07:41:00,
2013-08-17 03:46:00,54.8,54.0,30.23,SE,130,0.0,0.0,97,0.00,,---,0.00,0.00,VWS V14.01,2013-08-17 07:46:00,
2013-08-17 03:51:00,54.7,53.9,30.23,SE,130,0.0,0.0,97,0.00,,---,0.00,0.00,VWS V14.01,2013-08-17 07:51:00,
2013-08-17 03:56:00,54.5,53.7,30.23,SE,130,0.0,0.0,97,0.00,,---,0.00,0.00,VWS V14.01,2013-08-17 07:56:00,
2013-08-17 04:01:00,54.4,53.6,30.23,SE,130,0.0,0.0,97,0.00,,---,0.00,0.00,VWS V14.01,2013-08-17 08:01:00,
2013-08-17 04:06:00,54.4,53.6,30.23,SE,130,0.0,0.0,97,0.00,,---,0.00,0.00,VWS V14.01,2013-08-17 08:06:00,
2013-08-17 04:11:00,54.2,53.4,30.24,SE,130,0.0,0.0,97,0.00,,---,0.00,0.00,VWS V14.01,2013-08-17 08:11:00,
2013-08-17 04:16:00,54.2,53.4,30.23,SE,130,0.0,0.0,97,0.00,,---,0.00,0.00,VWS V14.01,2013-08-17 08:16:00,
2013-08-17 04:22:00,54.2,53.4,30.23,SE,130,0.0,0.0,97,0.00,,---,0.00,0.00,VWS V14.01,2013-08-17 08:22:00,
2013-08-17 04:27:00,54.2,53.7,30.23,SE,130,0.0,0.0,98,0.00,,---,0.00,0.00,VWS V14.01,2013-08-17 08:27:00,
2013-08-17 04:32:00,54.2,53.7,30.23,SE,130,0.0,0.0,98,0.00,,---,0.00,0.00,VWS V14.01,2013-08-17 08:32:00,
2013-08-17 04:37:00,54.2,53.7,30.23,SE,130,0.0,0.0,98,0.00,,---,0.00,0.00,VWS V14.01,2013-08-17 08:37:00,
2013-08-17 04:42:00,54.1,53.5,30.24,SE,130,0.0,0.0,98,0.00,,---,0.00,0.00,VWS V14.01,2013-08-17 08:42:00,
2013-08-17 04:47:00,53.9,53.3,30.24,SE,130,0.0,0.0,98,0.00,,---,0.00,0.00,VWS V14.01,2013-08-17 08:47:00,
2013-08-17 04:52:00,53.9,53.3,30.24,SE,130,0.0,0.0,98,0.00,,---,0.00,0.00,VWS V14.01,2013-08-17 08:52:00,
2013-08-17 04:57:00,53.8,53.2,30.24,SE,130,0.0,0.0,98,0.00,,---,0.00,0.00,VWS V14.01,2013-08-17 08:57:00,
2013-08-17 05:02:00,53.8,53.2,30.24,SE,130,0.0,0.0,98,0.00,,---,0.00,0.00,VWS V14.01,2013-08-17 09:02:00,
2013-08-17 05:07:00,53.5,53.0,30.24,SE,130,0.0,0.0,98,0.00,,---,0.00,0.00,VWS V14.01,2013-08-17 09:07:00,
2013-08-17 05:12:00,53.6,53.0,30.24,SE,130,0.0,0.0,98,0.00,,---,0.00,0.00,VWS V14.01,2013-08-17 09:12:00,
2013-08-17 05:17:00,53.5,53.0,30.24,SE,130,0.0,0.0,98,0.00,,---,0.00,0.00,VWS V14.01,2013-08-17 09:17:00,
2013-08-17 05:22:00,53.6,53.0,30.25,SE,130,0.0,0.0,98,0.00,,---,0.00,0.00,VWS V14.01,2013-08-17 09:22:00,
2013-08-17 05:27:00,53.5,53.0,30.25,SE,130,0.0,0.0,98,0.00,,---,0.00,0.00,VWS V14.01,2013-08-17 09:27:00,
2013-08-17 05:32:00,53.5,53.0,30.25,SE,130,0.0,0.0,98,0.00,,---,0.00,0.00,VWS V14.01,2013-08-17 09:32:00,
2013-08-17 05:37:00,53.3,52.8,30.25,SE,130,0.0,0.0,98,0.00,,---,0.00,0.00,VWS V14.01,2013-08-17 09:37:00,
2013-08-17 05:42:00,53.3,52.8,30.25,SE,130,0.0,0.0,98,0.00,,---,0.00,0.00,VWS V14.01,2013-08-17 09:42:00,
2013-08-17 05:47:00,53.3,52.8,30.25,SE,130,0.0,0.0,98,0.00,,---,0.00,0.00,VWS V14.01,2013-08-17 09:47:00,
2013-08-17 05:52:00,53.3,52.8,30.25,SE,130,0.0,0.0,98,0.00,,---,0.00,0.00,VWS V14.01,2013-08-17 09:52:00,
2013-08-17 05:57:00,53.3,53.0,30.26,SE,130,0.0,0.0,99,0.00,,---,0.00,0.00,VWS V14.01,2013-08-17 09:57:00,
2013-08-17 06:02:00,53.2,52.7,30.26,SE,130,0.0,0.0,98,0.00,,---,0.00,0.00,VWS V14.01,2013-08-17 10:02:00,
2013-08-17 06:07:00,53.2,52.9,30.26,SE,130,0.0,0.0,99,0.00,,---,0.00,7.00,VWS V14.01,2013-08-17 10:07:00,
2013-08-17 06:12:00,53.2,52.9,30.26,SE,130,0.0,0.0,99,0.00,,---,0.00,9.00,VWS V14.01,2013-08-17 10:12:00,
2013-08-17 06:17:00,53.2,52.9,30.26,SE,130,0.0,0.0,99,0.00,,---,0.00,11.00,VWS V14.01,2013-08-17 10:17:00,
2013-08-17 06:22:00,53.2,52.9,30.27,SE,130,0.0,0.0,99,0.00,,---,0.00,14.00,VWS V14.01,2013-08-17 10:22:00,
2013-08-17 06:27:00,53.2,52.9,30.27,SE,130,0.0,0.0,99,0.00,,---,0.00,18.00,VWS V14.01,2013-08-17 10:27:00,
2013-08-17 06:32:00,53.2,52.9,30.27,SE,130,0.0,0.0,99,0.00,,---,0.00,19.00,VWS V14.01,2013-08-17 10:32:00,
2013-08-17 06:37:00,53.3,53.0,30.27,SE,130,0.0,0.0,99,0.00,,---,0.00,23.00,VWS V14.01,2013-08-17 10:37:00,
2013-08-17 06:42:00,53.3,53.0,30.27,SE,130,0.0,0.0,99,0.00,,---,0.00,25.00,VWS V14.01,2013-08-17 10:42:00,
2013-08-17 06:47:00,53.5,53.2,30.27,SE,130,0.0,0.0,99,0.00,,---,0.00,26.00,VWS V14.01,2013-08-17 10:47:00,
2013-08-17 06:52:00,53.8,53.5,30.27,SE,130,0.0,0.0,99,0.00,,---,0.00,28.00,VWS V14.01,2013-08-17 10:52:00,
2013-08-17 06:57:00,53.8,53.5,30.27,SE,130,0.0,0.0,99,0.00,,---,0.00,30.00,VWS V14.01,2013-08-17 10:57:00,
2013-08-17 07:02:00,53.8,53.5,30.27,SE,130,0.0,0.0,99,0.00,,---,0.00,32.00,VWS V14.01,2013-08-17 11:02:00,
2013-08-17 07:07:00,53.9,53.6,30.27,SE,130,0.0,0.0,99,0.00,,---,0.00,33.00,VWS V14.01,2013-08-17 11:07:00,
2013-08-17 07:12:00,53.9,53.6,30.27,SE,130,0.0,0.0,99,0.00,,---,0.00,35.00,VWS V14.01,2013-08-17 11:12:00,
2013-08-17 07:17:00,54.1,53.8,30.27,SE,130,0.0,0.0,99,0.00,,---,0.00,37.00,VWS V14.01,2013-08-17 11:17:00,
2013-08-17 07:22:00,54.4,54.1,30.27,SE,130,0.0,0.0,99,0.00,,---,0.00,40.00,VWS V14.01,2013-08-17 11:22:00,
2013-08-17 07:27:00,54.7,54.4,30.27,SE,130,0.0,0.0,99,0.00,,---,0.00,42.00,VWS V14.01,2013-08-17 11:27:00,
2013-08-17 07:32:00,54.7,54.4,30.28,SE,130,0.0,0.0,99,0.00,,---,0.00,44.00,VWS V14.01,2013-08-17 11:32:00,
2013-08-17 07:37:00,54.8,54.5,30.28,SE,130,0.0,0.0,99,0.00,,---,0.00,46.00,VWS V14.01,2013-08-17 11:37:00,
2013-08-17 07:42:00,55.1,54.8,30.28,SE,130,0.0,0.0,99,0.00,,---,0.00,47.00,VWS V14.01,2013-08-17 11:42:00,
2013-08-17 07:47:00,55.1,54.8,30.28,SE,130,0.0,0.0,99,0.00,,---,0.00,47.00,VWS V14.01,2013-08-17 11:47:00,
2013-08-17 07:52:00,55.4,55.1,30.28,SE,130,0.0,0.0,99,0.00,,---,0.00,49.00,VWS V14.01,2013-08-17 11:52:00,
2013-08-17 07:57:00,55.6,55.0,30.28,SE,130,0.0,0.0,98,0.00,,---,0.00,51.00,VWS V14.01,2013-08-17 11:57:00,
2013-08-17 08:02:00,56.3,55.8,30.28,SE,130,0.0,0.0,98,0.00,,---,0.00,53.00,VWS V14.01,2013-08-17 12:02:00,
2013-08-17 08:06:00,56.6,56.0,30.28,SE,130,0.0,0.0,98,0.00,,---,0.00,53.00,VWS V14.01,2013-08-17 12:06:00,
2013-08-17 08:11:00,56.7,56.1,30.28,SE,130,0.0,0.0,98,0.00,,---,0.00,54.00,VWS V14.01,2013-08-17 12:11:00,
2013-08-17 08:16:00,56.9,56.1,30.28,SE,130,0.0,0.0,97,0.00,,---,0.00,56.00,VWS V14.01,2013-08-17 12:16:00,
2013-08-17 08:21:00,57.2,56.4,30.28,SE,130,0.0,0.0,97,0.00,,---,0.00,58.00,VWS V14.01,2013-08-17 12:21:00,
2013-08-17 08:26:00,57.6,56.8,30.28,SE,130,0.0,0.0,97,0.00,,---,0.00,62.00,VWS V14.01,2013-08-17 12:26:00,
2013-08-17 08:31:00,58.4,57.6,30.29,SE,130,0.0,0.0,97,0.00,,---,0.00,113.00,VWS V14.01,2013-08-17 12:31:00,
2013-08-17 08:36:00,58.7,57.6,30.28,SE,130,0.0,0.0,96,0.00,,---,0.00,105.00,VWS V14.01,2013-08-17 12:36:00,
2013-08-17 08:41:00,59.2,57.8,30.28,SE,130,0.0,0.0,95,0.00,,---,0.00,63.00,VWS V14.01,2013-08-17 12:41:00,
2013-08-17 08:46:00,59.6,57.9,30.28,SE,130,0.0,0.0,94,0.00,,---,0.00,63.00,VWS V14.01,2013-08-17 12:46:00,
2013-08-17 08:51:00,60.2,57.6,30.28,SE,130,0.0,0.0,91,0.00,,---,0.00,65.00,VWS V14.01,2013-08-17 12:51:00,
2013-08-17 08:56:00,60.7,58.1,30.28,SE,130,0.0,0.0,91,0.00,,---,0.00,67.00,VWS V14.01,2013-08-17 12:56:00,
2013-08-17 09:01:00,60.9,58.0,30.28,SE,130,0.0,0.0,90,0.00,,---,0.00,67.00,VWS V14.01,2013-08-17 13:01:00,
2013-08-17 09:06:00,61.2,58.2,30.28,SE,130,0.0,0.0,90,0.00,,---,0.00,69.00,VWS V14.01,2013-08-17 13:06:00,
2013-08-17 09:11:00,61.6,58.3,30.28,SE,130,0.0,0.0,89,0.00,,---,0.00,74.00,VWS V14.01,2013-08-17 13:11:00,
2013-08-17 09:16:00,62.4,58.2,30.28,SE,130,0.0,0.0,86,0.00,,---,0.00,218.00,VWS V14.01,2013-08-17 13:16:00,
2013-08-17 09:21:00,62.9,58.3,30.28,SE,130,0.0,0.0,85,0.00,,---,0.00,519.00,VWS V14.01,2013-08-17 13:21:00,
2013-08-17 09:26:00,63.5,58.2,30.28,SE,130,0.0,0.0,83,0.00,,---,0.00,555.00,VWS V14.01,2013-08-17 13:26:00,
2013-08-17 09:31:00,64.5,58.9,30.28,SE,130,0.0,0.0,82,0.00,,---,0.00,578.00,VWS V14.01,2013-08-17 13:31:00,
2013-08-17 09:36:00,65.0,59.0,30.29,SE,130,0.0,0.0,81,0.00,,---,0.00,596.00,VWS V14.01,2013-08-17 13:36:00,
2013-08-17 09:41:00,65.5,59.5,30.29,SE,130,0.0,0.0,81,0.00,,---,0.00,610.00,VWS V14.01,2013-08-17 13:41:00,
2013-08-17 09:46:00,66.4,59.3,30.29,SE,130,0.0,0.0,78,0.00,,---,0.00,628.00,VWS V14.01,2013-08-17 13:46:00,
2013-08-17 09:51:00,66.9,59.8,30.28,SE,130,0.0,0.0,78,0.00,,---,0.00,643.00,VWS V14.01,2013-08-17 13:51:00,
2013-08-17 09:56:00,67.6,59.4,30.28,SE,130,0.0,0.0,75,0.00,,---,0.00,656.00,VWS V14.01,2013-08-17 13:56:00,
2013-08-17 10:01:00,67.9,58.2,30.29,SE,126,0.0,0.0,71,0.00,,---,0.00,661.00,VWS V14.01,2013-08-17 14:01:00,
2013-08-17 10:06:00,68.6,58.8,30.29,ENE,71,0.0,0.0,71,0.00,,---,0.00,684.00,VWS V14.01,2013-08-17 14:06:00,
2013-08-17 10:11:00,68.9,57.1,30.28,ENE,72,0.0,0.0,66,0.00,,---,0.00,698.00,VWS V14.01,2013-08-17 14:11:00,
2013-08-17 10:16:00,69.4,58.4,30.29,East,90,0.0,2.0,68,0.00,,---,0.00,708.00,VWS V14.01,2013-08-17 14:16:00,
2013-08-17 10:21:00,69.3,56.2,30.29,NE,35,1.0,1.0,63,0.00,,---,0.00,721.00,VWS V14.01,2013-08-17 14:21:00,
2013-08-17 10:26:00,69.9,54.5,30.28,NW,304,0.0,5.0,58,0.00,,---,0.00,735.00,VWS V14.01,2013-08-17 14:26:00,
2013-08-17 10:31:00,70.6,60.0,30.28,West,279,1.0,5.0,69,0.00,,---,0.00,742.00,VWS V14.01,2013-08-17 14:31:00,
2013-08-17 10:36:00,70.8,57.2,30.29,West,279,0.0,0.0,62,0.00,,---,0.00,756.00,VWS V14.01,2013-08-17 14:36:00,
2013-08-17 10:41:00,70.6,53.7,30.28,West,281,0.0,1.0,55,0.00,,---,0.00,768.00,VWS V14.01,2013-08-17 14:41:00,
2013-08-17 10:46:00,71.1,54.6,30.28,NE,51,1.0,5.0,56,0.00,,---,0.00,775.00,VWS V14.01,2013-08-17 14:46:00,
2013-08-17 10:51:00,71.5,56.9,30.28,NNE,30,0.0,1.0,60,0.00,,---,0.00,788.00,VWS V14.01,2013-08-17 14:51:00,
2013-08-17 10:56:00,71.3,52.8,30.28,NNE,17,2.0,2.0,52,0.00,,---,0.00,796.00,VWS V14.01,2013-08-17 14:56:00,
2013-08-17 11:01:00,72.0,56.0,30.28,NNE,33,0.0,2.0,57,0.00,,---,0.00,807.00,VWS V14.01,2013-08-17 15:01:00,
2013-08-17 11:06:00,71.5,55.0,30.28,NNW,345,1.0,3.0,56,0.00,,---,0.00,816.00,VWS V14.01,2013-08-17 15:06:00,
2013-08-17 11:11:00,72.0,55.0,30.28,NE,34,0.0,3.0,55,0.00,,---,0.00,826.00,VWS V14.01,2013-08-17 15:11:00,
2013-08-17 11:16:00,72.5,55.4,30.28,NNE,24,0.0,5.0,55,0.00,,---,0.00,835.00,VWS V14.01,2013-08-17 15:16:00,
2013-08-17 11:21:00,72.3,56.7,30.28,ENE,77,0.0,0.0,58,0.00,,---,0.00,842.00,VWS V14.01,2013-08-17 15:21:00,
2013-08-17 11:26:00,72.5,54.9,30.28,ENE,74,0.0,1.0,54,0.00,,---,0.00,851.00,VWS V14.01,2013-08-17 15:26:00,
2013-08-17 11:31:00,72.5,54.4,30.28,East,92,0.0,1.0,53,0.00,,---,0.00,851.00,VWS V14.01,2013-08-17 15:31:00,
2013-08-17 11:36:00,73.2,56.1,30.28,ENE,65,0.0,1.0,55,0.00,,---,0.00,863.00,VWS V14.01,2013-08-17 15:36:00,
2013-08-17 11:41:00,73.3,56.2,30.28,ENE,58,3.0,3.0,55,0.00,,---,0.00,870.00,VWS V14.01,2013-08-17 15:41:00,
2013-08-17 11:46:00,73.7,53.9,30.28,NE,55,0.0,3.0,50,0.00,,---,0.00,875.00,VWS V14.01,2013-08-17 15:46:00,
2013-08-17 11:51:00,73.3,59.0,30.28,NE,56,0.0,0.0,61,0.00,,---,0.00,882.00,VWS V14.01,2013-08-17 15:51:00,
2013-08-17 11:56:00,73.0,56.9,30.28,ESE,107,0.0,2.0,57,0.00,,---,0.00,886.00,VWS V14.01,2013-08-17 15:56:00,
2013-08-17 12:01:00,72.8,56.7,30.28,ENE,75,0.0,2.0,57,0.00,,---,0.00,898.00,VWS V14.01,2013-08-17 16:01:00,
2013-08-17 12:06:00,73.0,52.7,30.29,East,90,0.0,1.0,49,0.00,,---,0.00,893.00,VWS V14.01,2013-08-17 16:06:00,
2013-08-17 12:11:00,73.5,56.9,30.28,East,89,0.0,1.0,56,0.00,,---,0.00,888.00,VWS V14.01,2013-08-17 16:11:00,
2013-08-17 12:16:00,74.2,58.5,30.28,NE,48,0.0,1.0,58,0.00,,---,0.00,912.00,VWS V14.01,2013-08-17 16:16:00,
2013-08-17 12:21:00,74.4,57.2,30.28,NE,48,1.0,1.0,55,0.00,,---,0.00,904.00,VWS V14.01,2013-08-17 16:21:00,
2013-08-17 12:26:00,74.2,59.0,30.28,NE,48,0.0,1.0,59,0.00,,---,0.00,905.00,VWS V14.01,2013-08-17 16:26:00,
2013-08-17 12:31:00,73.9,55.7,30.28,East,84,0.0,1.0,53,0.00,,---,0.00,914.00,VWS V14.01,2013-08-17 16:31:00,
2013-08-17 12:36:00,74.4,57.7,30.28,East,85,0.0,0.0,56,0.00,,---,0.00,932.00,VWS V14.01,2013-08-17 16:36:00,
2013-08-17 12:41:00,74.9,55.6,30.28,SSE,164,0.0,1.0,51,0.00,,---,0.00,896.00,VWS V14.01,2013-08-17 16:41:00,
2013-08-17 12:46:00,74.6,57.9,30.27,WNW,294,0.0,1.0,56,0.00,,---,0.00,926.00,VWS V14.01,2013-08-17 16:46:00,
2013-08-17 12:51:00,75.6,59.8,30.27,WNW,294,0.0,0.0,58,0.00,,---,0.00,965.00,VWS V14.01,2013-08-17 16:51:00,
2013-08-17 12:56:00,75.6,56.8,30.27,WNW,293,0.0,0.0,52,0.00,,---,0.00,986.00,VWS V14.01,2013-08-17 16:56:00,
2013-08-17 13:01:00,75.6,57.8,30.27,WNW,290,0.0,1.0,54,0.00,,---,0.00,900.00,VWS V14.01,2013-08-17 17:01:00,
2013-08-17 13:06:00,76.0,59.7,30.27,WNW,290,0.0,0.0,57,0.00,,---,0.00,1002.00,VWS V14.01,2013-08-17 17:06:00,
2013-08-17 13:11:00,75.4,53.8,30.27,NNW,345,0.0,2.0,47,0.00,,---,0.00,1067.00,VWS V14.01,2013-08-17 17:11:00,
2013-08-17 13:16:00,76.0,57.7,30.27,North,355,0.0,2.0,53,0.00,,---,0.00,1007.00,VWS V14.01,2013-08-17 17:16:00,
2013-08-17 13:21:00,75.4,54.4,30.27,NNE,32,0.0,2.0,48,0.00,,---,0.00,220.00,VWS V14.01,2013-08-17 17:21:00,
2013-08-17 13:26:00,75.4,59.6,30.27,NNE,32,0.0,2.0,58,0.00,,---,0.00,1018.00,VWS V14.01,2013-08-17 17:26:00,
2013-08-17 13:31:00,76.0,54.3,30.27,NNE,19,0.0,2.0,47,0.00,,---,0.00,1053.00,VWS V14.01,2013-08-17 17:31:00,
2013-08-17 13:36:00,76.7,56.1,30.26,NNE,29,0.0,3.0,49,0.00,,---,0.00,1027.00,VWS V14.01,2013-08-17 17:36:00,
2013-08-17 13:41:00,76.0,58.7,30.26,NNE,17,0.0,3.0,55,0.00,,---,0.00,1041.00,VWS V14.01,2013-08-17 17:41:00,
2013-08-17 13:46:00,76.3,61.4,30.26,NNE,23,0.0,3.0,60,0.00,,---,0.00,988.00,VWS V14.01,2013-08-17 17:46:00,
2013-08-17 13:51:00,75.1,60.3,30.26,ENE,71,1.0,1.0,60,0.00,,---,0.00,1079.00,VWS V14.01,2013-08-17 17:51:00,
2013-08-17 13:56:00,74.7,55.9,30.26,ESE,103,0.0,1.0,52,0.00,,---,0.00,204.00,VWS V14.01,2013-08-17 17:56:00,
2013-08-17 14:01:00,73.7,56.5,30.26,ESE,103,0.0,1.0,55,0.00,,---,0.00,188.00,VWS V14.01,2013-08-17 18:01:00,
2013-08-17 14:06:00,72.8,56.7,30.26,East,101,0.0,0.0,57,0.00,,---,0.00,146.00,VWS V14.01,2013-08-17 18:06:00,
2013-08-17 14:11:00,72.0,57.8,30.26,East,101,0.0,0.0,61,0.00,,---,0.00,186.00,VWS V14.01,2013-08-17 18:11:00,
2013-08-17 14:16:00,72.0,58.7,30.26,East,101,0.0,0.0,63,0.00,,---,0.00,253.00,VWS V14.01,2013-08-17 18:16:00,
2013-08-17 14:21:00,72.3,57.2,30.26,East,101,0.0,0.0,59,0.00,,---,0.00,378.00,VWS V14.01,2013-08-17 18:21:00,
2013-08-17 14:26:00,73.5,59.2,30.26,East,101,0.0,0.0,61,0.00,,---,0.00,216.00,VWS V14.01,2013-08-17 18:26:00,
2013-08-17 14:31:00,72.3,61.2,30.26,East,92,0.0,0.0,68,0.00,,---,0.00,255.00,VWS V14.01,2013-08-17 18:31:00,
2013-08-17 14:36:00,72.0,58.3,30.26,East,94,0.0,0.0,62,0.00,,---,0.00,476.00,VWS V14.01,2013-08-17 18:36:00,
2013-08-17 14:41:00,73.9,57.2,30.26,ENE,76,0.0,0.0,56,0.00,,---,0.00,905.00,VWS V14.01,2013-08-17 18:41:00,
2013-08-17 14:47:00,74.2,59.9,30.26,NNE,12,0.0,0.0,61,0.00,,---,0.00,780.00,VWS V14.01,2013-08-17 18:47:00,
2013-08-17 14:52:00,75.1,60.3,30.25,NNE,13,0.0,0.0,60,0.00,,---,0.00,819.00,VWS V14.01,2013-08-17 18:52:00,
2013-08-17 14:57:00,75.4,57.1,30.25,NNE,13,0.0,0.0,53,0.00,,---,0.00,816.00,VWS V14.01,2013-08-17 18:57:00,
2013-08-17 15:02:00,75.1,57.8,30.25,NNE,14,0.0,0.0,55,0.00,,---,0.00,816.00,VWS V14.01,2013-08-17 19:02:00,
2013-08-17 15:07:00,75.8,54.7,30.25,NNE,15,0.0,0.0,48,0.00,,---,0.00,824.00,VWS V14.01,2013-08-17 19:07:00,
2013-08-17 15:12:00,75.8,55.3,30.25,NNE,15,0.0,0.0,49,0.00,,---,0.00,788.00,VWS V14.01,2013-08-17 19:12:00,
2013-08-17 15:17:00,75.3,57.5,30.25,ESE,111,0.0,2.0,54,0.00,,---,0.00,788.00,VWS V14.01,2013-08-17 19:17:00,
2013-08-17 15:22:00,74.7,57.5,30.25,ESE,111,0.0,0.0,55,0.00,,---,0.00,800.00,VWS V14.01,2013-08-17 19:22:00,
2013-08-17 15:27:00,76.1,53.8,30.25,ESE,111,0.0,0.0,46,0.00,,---,0.00,860.00,VWS V14.01,2013-08-17 19:27:00,
2013-08-17 15:32:00,75.8,58.5,30.25,SSW,207,0.0,3.0,55,0.00,,---,0.00,867.00,VWS V14.01,2013-08-17 19:32:00,
2013-08-17 15:37:00,74.6,58.4,30.25,East,82,1.0,1.0,57,0.00,,---,0.00,814.00,VWS V14.01,2013-08-17 19:37:00,
2013-08-17 15:42:00,73.9,58.7,30.25,ENE,67,0.0,1.0,59,0.00,,---,0.00,142.00,VWS V14.01,2013-08-17 19:42:00,
2013-08-17 15:47:00,73.2,55.6,30.25,ENE,67,0.0,1.0,54,0.00,,---,0.00,144.00,VWS V14.01,2013-08-17 19:47:00,
2013-08-17 15:52:00,73.2,56.6,30.25,ENE,67,0.0,0.0,56,0.00,,---,0.00,167.00,VWS V14.01,2013-08-17 19:52:00,
2013-08-17 15:57:00,73.9,54.7,30.25,ENE,65,0.0,0.0,51,0.00,,---,0.00,107.00,VWS V14.01,2013-08-17 19:57:00,
2013-08-17 16:02:00,73.3,55.7,30.24,ENE,65,0.0,0.0,54,0.00,,---,0.00,158.00,VWS V14.01,2013-08-17 20:02:00,
2013-08-17 16:07:00,73.0,57.8,30.24,ENE,65,0.0,0.0,59,0.00,,---,0.00,146.00,VWS V14.01,2013-08-17 20:07:00,
2013-08-17 16:12:00,73.0,57.4,30.24,ENE,67,0.0,0.0,58,0.00,,---,0.00,102.00,VWS V14.01,2013-08-17 20:12:00,
2013-08-17 16:17:00,72.5,56.4,30.24,ENE,67,0.0,1.0,57,0.00,,---,0.00,98.00,VWS V14.01,2013-08-17 20:17:00,
2013-08-17 16:22:00,72.7,57.1,30.24,ENE,61,0.0,2.0,58,0.00,,---,0.00,84.00,VWS V14.01,2013-08-17 20:22:00,
2013-08-17 16:27:00,72.8,57.2,30.24,ENE,63,0.0,2.0,58,0.00,,---,0.00,69.00,VWS V14.01,2013-08-17 20:27:00,
2013-08-17 16:32:00,73.3,56.2,30.24,ENE,63,0.0,2.0,55,0.00,,---,0.00,62.00,VWS V14.01,2013-08-17 20:32:00,
2013-08-17 16:37:00,73.7,56.5,30.24,ENE,63,0.0,0.0,55,0.00,,---,0.00,60.00,VWS V14.01,2013-08-17 20:37:00,
2013-08-17 16:42:00,73.9,56.2,30.24,ENE,62,0.0,1.0,54,0.00,,---,0.00,60.00,VWS V14.01,2013-08-17 20:42:00,
2013-08-17 16:47:00,73.5,55.3,30.24,ENE,62,0.0,1.0,53,0.00,,---,0.00,63.00,VWS V14.01,2013-08-17 20:47:00,
2013-08-17 16:52:00,73.2,56.6,30.24,ENE,62,0.0,0.0,56,0.00,,---,0.00,56.00,VWS V14.01,2013-08-17 20:52:00,
2013-08-17 16:57:00,73.3,56.2,30.24,ENE,63,0.0,1.0,55,0.00,,---,0.00,56.00,VWS V14.01,2013-08-17 20:57:00,
2013-08-17 17:02:00,72.8,56.7,30.24,North,355,0.0,1.0,57,0.00,,---,0.00,53.00,VWS V14.01,2013-08-17 21:02:00,
2013-08-17 17:07:00,73.0,56.4,30.25,NE,37,0.0,0.0,56,0.00,,---,0.00,51.00,VWS V14.01,2013-08-17 21:07:00,
2013-08-17 17:12:00,72.5,55.9,30.25,NE,38,0.0,0.0,56,0.00,,---,0.00,51.00,VWS V14.01,2013-08-17 21:12:00,
2013-08-17 17:17:00,72.7,55.6,30.25,NE,38,0.0,0.0,55,0.00,,---,0.00,49.00,VWS V14.01,2013-08-17 21:17:00,
2013-08-17 17:22:00,72.5,55.9,30.25,NE,39,0.0,0.0,56,0.00,,---,0.00,60.00,VWS V14.01,2013-08-17 21:22:00,
2013-08-17 17:27:00,72.5,54.9,30.25,NE,39,0.0,0.0,54,0.00,,---,0.00,49.00,VWS V14.01,2013-08-17 21:27:00,
2013-08-17 17:32:00,72.7,56.1,30.25,NE,39,0.0,0.0,56,0.00,,---,0.00,42.00,VWS V14.01,2013-08-17 21:32:00,
2013-08-17 17:37:00,72.8,55.7,30.25,NE,40,0.0,0.0,55,0.00,,---,0.00,40.00,VWS V14.01,2013-08-17 21:37:00,
2013-08-17 17:42:00,73.0,54.4,30.25,NE,38,0.0,2.0,52,0.00,,---,0.00,39.00,VWS V14.01,2013-08-17 21:42:00,
2013-08-17 17:47:00,73.0,55.4,30.25,NE,38,0.0,2.0,54,0.00,,---,0.00,39.00,VWS V14.01,2013-08-17 21:47:00,
2013-08-17 17:52:00,72.7,56.1,30.25,NE,38,1.0,1.0,56,0.00,,---,0.00,39.00,VWS V14.01,2013-08-17 21:52:00,
2013-08-17 17:57:00,72.3,55.7,30.25,NE,38,0.0,1.0,56,0.00,,---,0.00,72.00,VWS V14.01,2013-08-17 21:57:00,
2013-08-17 18:02:00,72.1,55.1,30.25,NE,38,0.0,1.0,55,0.00,,---,0.00,32.00,VWS V14.01,2013-08-17 22:02:00,
2013-08-17 18:07:00,72.1,56.0,30.25,NE,38,0.0,0.0,57,0.00,,---,0.00,30.00,VWS V14.01,2013-08-17 22:07:00,
2013-08-17 18:12:00,72.1,56.0,30.25,NE,38,0.0,0.0,57,0.00,,---,0.00,28.00,VWS V14.01,2013-08-17 22:12:00,
2013-08-17 18:17:00,71.8,56.7,30.25,NE,38,0.0,0.0,59,0.00,,---,0.00,26.00,VWS V14.01,2013-08-17 22:17:00,
2013-08-17 18:22:00,71.5,56.9,30.25,NE,38,0.0,0.0,60,0.00,,---,0.00,25.00,VWS V14.01,2013-08-17 22:22:00,
2013-08-17 18:27:00,71.5,56.9,30.25,NNE,29,0.0,3.0,60,0.00,,---,0.00,28.00,VWS V14.01,2013-08-17 22:27:00,
2013-08-17 18:32:00,71.6,56.1,30.25,NNE,30,0.0,3.0,58,0.00,,---,0.00,25.00,VWS V14.01,2013-08-17 22:32:00,
2013-08-17 18:37:00,71.3,57.2,30.26,NNE,30,0.0,0.0,61,0.00,,---,0.00,21.00,VWS V14.01,2013-08-17 22:37:00,
2013-08-17 18:42:00,71.1,57.0,30.26,NNE,30,0.0,0.0,61,0.00,,---,0.00,19.00,VWS V14.01,2013-08-17 22:42:00,
2013-08-17 18:47:00,70.8,56.7,30.26,NNE,30,0.0,0.0,61,0.00,,---,0.00,16.00,VWS V14.01,2013-08-17 22:47:00,
2013-08-17 18:52:00,70.3,57.6,30.26,NNE,30,0.0,0.0,64,0.00,,---,0.00,16.00,VWS V14.01,2013-08-17 22:52:00,
2013-08-17 18:57:00,69.8,58.4,30.26,NNE,30,0.0,0.0,67,0.00,,---,0.00,16.00,VWS V14.01,2013-08-17 22:57:00,
2013-08-17 19:02:00,69.1,58.9,30.25,NNE,30,0.0,0.0,70,0.00,,---,0.00,14.00,VWS V14.01,2013-08-17 23:02:00,
2013-08-17 19:07:00,68.6,59.6,30.26,NNE,30,0.0,0.0,73,0.00,,---,0.00,14.00,VWS V14.01,2013-08-17 23:07:00,
2013-08-17 19:12:00,68.4,59.4,30.26,NNE,30,0.0,0.0,73,0.00,,---,0.00,12.00,VWS V14.01,2013-08-17 23:12:00,
2013-08-17 19:17:00,68.1,59.5,30.25,NNE,30,0.0,0.0,74,0.00,,---,0.00,11.00,VWS V14.01,2013-08-17 23:17:00,
2013-08-17 19:22:00,67.6,60.1,30.25,NNE,30,0.0,0.0,77,0.00,,---,0.00,9.00,VWS V14.01,2013-08-17 23:22:00,
2013-08-17 19:27:00,67.3,59.8,30.25,NNE,30,0.0,0.0,77,0.00,,---,0.00,7.00,VWS V14.01,2013-08-17 23:27:00,
2013-08-17 19:32:00,66.9,59.8,30.25,NNE,30,0.0,0.0,78,0.00,,---,0.00,5.00,VWS V14.01,2013-08-17 23:32:00,
2013-08-17 19:37:00,66.4,59.3,30.25,NNE,30,0.0,0.0,78,0.00,,---,0.00,5.00,VWS V14.01,2013-08-17 23:37:00,
2013-08-17 19:42:00,66.1,59.0,30.26,NNE,30,0.0,0.0,78,0.00,,---,0.00,0.00,VWS V14.01,2013-08-17 23:42:00,
2013-08-17 19:47:00,65.8,58.4,30.26,NNE,30,0.0,0.0,77,0.00,,---,0.00,0.00,VWS V14.01,2013-08-17 23:47:00,
2013-08-17 19:52:00,65.5,58.1,30.25,NNE,30,0.0,0.0,77,0.00,,---,0.00,0.00,VWS V14.01,2013-08-17 23:52:00,
2013-08-17 19:57:00,65.0,58.0,30.25,NNE,30,0.0,0.0,78,0.00,,---,0.00,0.00,VWS V14.01,2013-08-17 23:57:00,
2013-08-17 20:02:00,64.7,58.0,30.26,NNE,30,0.0,0.0,79,0.00,,---,0.00,0.00,VWS V14.01,2013-08-18 00:02:00,
2013-08-17 20:07:00,64.2,57.2,30.26,NNE,30,0.0,0.0,78,0.00,,---,0.00,0.00,VWS V14.01,2013-08-18 00:07:00,
2013-08-17 20:12:00,63.9,57.6,30.26,NNE,30,0.0,0.0,80,0.00,,---,0.00,0.00,VWS V14.01,2013-08-18 00:12:00,
2013-08-17 20:17:00,63.5,57.6,30.26,NNE,30,0.0,0.0,81,0.00,,---,0.00,0.00,VWS V14.01,2013-08-18 00:17:00,
2013-08-17 20:22:00,63.2,57.3,30.26,NNE,30,0.0,0.0,81,0.00,,---,0.00,0.00,VWS V14.01,2013-08-18 00:22:00,
2013-08-17 20:27:00,63.1,57.2,30.26,NNE,30,0.0,0.0,81,0.00,,---,0.00,0.00,VWS V14.01,2013-08-18 00:27:00,
2013-08-17 20:32:00,62.7,57.1,30.26,NNE,30,0.0,0.0,82,0.00,,---,0.00,0.00,VWS V14.01,2013-08-18 00:32:00,
2013-08-17 20:37:00,62.6,56.7,30.27,NNE,30,0.0,0.0,81,0.00,,---,0.00,0.00,VWS V14.01,2013-08-18 00:37:00,
2013-08-17 20:42:00,62.6,56.7,30.27,NNE,30,0.0,0.0,81,0.00,,---,0.00,0.00,VWS V14.01,2013-08-18 00:42:00,
2013-08-17 20:47:00,62.4,56.8,30.27,NNE,30,0.0,0.0,82,0.00,,---,0.00,0.00,VWS V14.01,2013-08-18 00:47:00,
2013-08-17 20:52:00,62.3,56.7,30.27,NNE,30,0.0,0.0,82,0.00,,---,0.00,0.00,VWS V14.01,2013-08-18 00:52:00,
2013-08-17 20:57:00,62.0,56.8,30.27,NNE,30,0.0,0.0,83,0.00,,---,0.00,0.00,VWS V14.01,2013-08-18 00:57:00,
2013-08-17 21:02:00,61.8,56.9,30.27,NNE,30,0.0,0.0,84,0.00,,---,0.00,0.00,VWS V14.01,2013-08-18 01:02:00,
2013-08-17 21:07:00,61.6,56.7,30.27,NNE,30,0.0,0.0,84,0.00,,---,0.00,0.00,VWS V14.01,2013-08-18 01:07:00,
2013-08-17 21:12:00,61.5,57.0,30.27,NNE,30,0.0,0.0,85,0.00,,---,0.00,0.00,VWS V14.01,2013-08-18 01:12:00,
2013-08-17 21:17:00,61.5,56.6,30.27,NNE,30,0.0,0.0,84,0.00,,---,0.00,0.00,VWS V14.01,2013-08-18 01:17:00,
2013-08-17 21:22:00,61.6,56.7,30.27,NNE,30,0.0,0.0,84,0.00,,---,0.00,0.00,VWS V14.01,2013-08-18 01:22:00,
2013-08-17 21:27:00,61.6,56.7,30.27,NNE,30,0.0,0.0,84,0.00,,---,0.00,0.00,VWS V14.01,2013-08-18 01:27:00,
2013-08-17 21:32:00,61.6,57.0,30.27,NNE,30,0.0,0.0,85,0.00,,---,0.00,0.00,VWS V14.01,2013-08-18 01:32:00,
2013-08-17 21:37:00,61.6,57.0,30.27,NNE,30,0.0,0.0,85,0.00,,---,0.00,0.00,VWS V14.01,2013-08-18 01:37:00,
2013-08-17 21:42:00,61.5,57.3,30.27,NNE,30,0.0,0.0,86,0.00,,---,0.00,0.00,VWS V14.01,2013-08-18 01:42:00,
2013-08-17 21:47:00,61.5,57.3,30.27,NNE,30,0.0,0.0,86,0.00,,---,0.00,0.00,VWS V14.01,2013-08-18 01:47:00,
2013-08-17 21:52:00,61.3,57.4,30.27,NNE,30,0.0,0.0,87,0.00,,---,0.00,0.00,VWS V14.01,2013-08-18 01:52:00,
2013-08-17 21:57:00,61.3,57.4,30.27,NNE,30,0.0,0.0,87,0.00,,---,0.00,0.00,VWS V14.01,2013-08-18 01:57:00,
2013-08-17 22:02:00,61.3,57.7,30.27,NNE,30,0.0,0.0,88,0.00,,---,0.00,0.00,VWS V14.01,2013-08-18 02:02:00,
2013-08-17 22:07:00,61.3,57.4,30.27,NNE,30,0.0,0.0,87,0.00,,---,0.00,0.00,VWS V14.01,2013-08-18 02:07:00,
2013-08-17 22:12:00,61.3,57.7,30.28,NNE,30,0.0,0.0,88,0.00,,---,0.00,0.00,VWS V14.01,2013-08-18 02:12:00,
2013-08-17 22:17:00,61.2,57.6,30.28,NNE,30,0.0,0.0,88,0.00,,---,0.00,0.00,VWS V14.01,2013-08-18 02:17:00,
2013-08-17 22:22:00,61.0,57.4,30.28,NNE,30,0.0,0.0,88,0.00,,---,0.00,0.00,VWS V14.01,2013-08-18 02:22:00,
2013-08-17 22:27:00,60.7,57.1,30.28,NNE,30,0.0,0.0,88,0.00,,---,0.00,0.00,VWS V14.01,2013-08-18 02:27:00,
2013-08-17 22:32:00,60.4,57.2,30.28,NNE,30,0.0,0.0,89,0.00,,---,0.00,0.00,VWS V14.01,2013-08-18 02:32:00,
2013-08-17 22:37:00,60.1,57.2,30.28,NNE,30,0.0,0.0,90,0.00,,---,0.00,0.00,VWS V14.01,2013-08-18 02:37:00,
2013-08-17 22:42:00,59.9,57.3,30.28,NNE,30,0.0,0.0,91,0.00,,---,0.00,0.00,VWS V14.01,2013-08-18 02:42:00,
2013-08-17 22:47:00,59.6,57.0,30.28,NNE,30,0.0,0.0,91,0.00,,---,0.00,0.00,VWS V14.01,2013-08-18 02:47:00,
2013-08-17 22:52:00,59.5,56.9,30.28,NNE,30,0.0,0.0,91,0.00,,---,0.00,0.00,VWS V14.01,2013-08-18 02:52:00,
2013-08-17 22:57:00,59.3,57.0,30.28,NNE,30,0.0,0.0,92,0.00,,---,0.00,0.00,VWS V14.01,2013-08-18 02:57:00,
2013-08-17 23:02:00,59.2,57.2,30.28,NNE,30,0.0,0.0,93,0.00,,---,0.00,0.00,VWS V14.01,2013-08-18 03:02:00,
2013-08-17 23:07:00,59.0,57.0,30.28,NNE,30,0.0,0.0,93,0.00,,---,0.00,0.00,VWS V14.01,2013-08-18 03:07:00,
2013-08-17 23:12:00,58.9,57.2,30.28,NNE,30,0.0,0.0,94,0.00,,---,0.00,0.00,VWS V14.01,2013-08-18 03:12:00,
2013-08-17 23:17:00,58.6,56.9,30.28,NNE,30,0.0,0.0,94,0.00,,---,0.00,0.00,VWS V14.01,2013-08-18 03:17:00,
2013-08-17 23:22:00,58.4,56.7,30.28,NNE,30,0.0,0.0,94,0.00,,---,0.00,0.00,VWS V14.01,2013-08-18 03:22:00,
2013-08-17 23:28:00,58.3,56.6,30.28,NNE,30,0.0,0.0,94,0.00,,---,0.00,0.00,VWS V14.01,2013-08-18 03:28:00,
2013-08-17 23:33:00,58.1,56.4,30.28,NNE,30,0.0,0.0,94,0.00,,---,0.00,0.00,VWS V14.01,2013-08-18 03:33:00,
2013-08-17 23:37:00,58.1,56.7,30.28,NNE,30,0.0,0.0,95,0.00,,---,0.00,0.00,VWS V14.01,2013-08-18 03:37:00,
2013-08-17 23:42:00,58.1,56.7,30.29,NNE,30,0.0,0.0,95,0.00,,---,0.00,0.00,VWS V14.01,2013-08-18 03:42:00,
2013-08-17 23:48:00,58.1,57.0,30.28,NNE,30,0.0,0.0,96,0.00,,---,0.00,0.00,VWS V14.01,2013-08-18 03:48:00,
2013-08-17 23:53:00,58.1,57.0,30.28,NNE,30,0.0,0.0,96,0.00,,---,0.00,0.00,VWS V14.01,2013-08-18 03:53:00,
2013-08-17 23:58:00,58.1,57.0,30.28,NNE,30,0.0,0.0,96,0.00,,---,0.00,0.00,VWS V14.01,2013-08-18 03:58:00,